BULGARIASAT-1

Last updated on Tue Sep 22 2026 00:03:14 GMT+0000 (Coordinated Universal Time)

1 42801U 17038A 26264.20436942 .00000010 00000+0 00000+0 0 9993 2 42801 0.0095 137.5347 0003578 55.1268 242.9342 1.00285940 33800
UTC large
Height (km)
Speed (km/s)
/
Latitude / Longitude
Inclination (degrees)
Orbital Period (minutes)
Azimuth
Elevation
Range (km)
Doppler Factor

Next 0 passes for location: London (51.5072 / 0.1276)

No passes found over London.
BULGARIASAT-1